Change the Weather History Date:

Friday, August 9, 2013

  Actual Average (KSBY) Record (KSBY)
Temperature  
Mean Temperature 81 °F 76 °F  
Max Temperature 89 °F 85 °F 102 °F (1930)
Min Temperature 73 °F 66 °F 46 °F (2002)
Degree Days  
Heating Degree Days 0 0  
Month to date heating degree days 0  
Since 1 June heating degree days 20  
Since 1 July heating degree days 1  
Cooling Degree Days 16 11  
Month to date cooling degree days 99  
Year to date cooling degree days 774  
Since 1 June cooling degree days 690  
Growing Degree Days 31 (Base 50)    
Moisture  
Dew Point 75 °F    
Average Humidity 86    
Maximum Humidity 100    
Minimum Humidity 65    
Precipitation  
Precipitation 0.95 in 0.16 in 4.33 in (1991)
Month to date precipitation 1.47  
Year to date precipitation 28.11  
Snow  
Snow 0.00 in 0.00 in 0.00 in (2002)
Month to date snowfall 0.0  
Since 1 July snowfall 0.0  
Snow Depth -    
Sea Level Pressure  
Sea Level Pressure 29.95 in    
Wind  
Wind Speed 9 mph (WSW)    
Max Wind Speed 22 mph    
Max Gust Speed 37 mph    
Visibility 7 miles    
Events Rain    
T = Trace of Precipitation, MM = Missing Value Source: NWS Daily Summary

Daily Weather History Graph

Daily Weather History Graph

Search for Another Location

Airport or City:

Trip Planner

Search our weather history database for the weather conditions in past years. The results will help you decide how hot, cold, wet, or windy it might be!

Date:

Astronomy

Aug. 09, 2013 Rise Set
Actual Time 6:09 AM EDT 8:01 PM EDT
Civil Twilight 5:41 AM EDT 8:29 PM EDT
Nautical Twilight 5:06 AM EDT 9:04 PM EDT
Astronomical Twilight 4:29 AM EDT 9:41 PM EDT
Moon 8:50 AM EDT (8/9) 9:13 PM EDT (8/9)
Length of Visible Light 14h 48m
Length of Day
13h 51m
Waxing Crescent, 7% of the Moon is Illuminated
Aug 9
Waxing Crescent
Aug 14
First Quarter
Aug 20
Full
Aug 28
Last Quarter
Sep 5
New

Hourly Weather History & Observations

Time (EDT) Temp. Heat Index Dew Point Humidity Pressure Visibility Wind Dir Wind Speed Gust Speed Precip Events Conditions
7:27 AM 75.2 °F - 73.4 °F 94% 29.97 in 5.0 mi South 6.9 mph - N/A   Overcast
7:53 AM 77.0 °F - 75.9 °F 96% 29.97 in 8.0 mi SSW 9.2 mph - N/A   Mostly Cloudy
8:05 AM 78.8 °F - 75.2 °F 89% 29.97 in 10.0 mi SW 10.4 mph - N/A   Partly Cloudy
8:53 AM 80.1 °F 85.4 °F 75.9 °F 87% 29.96 in 10.0 mi SW 5.8 mph - N/A   Clear
9:53 AM 84.0 °F 93.7 °F 77.0 °F 79% 29.95 in 10.0 mi SW 9.2 mph - N/A   Clear
10:53 AM 86.0 °F 95.1 °F 75.0 °F 70% 29.96 in 10.0 mi SW 6.9 mph 16.1 mph N/A   Clear
11:53 AM 86.0 °F 93.8 °F 73.9 °F 67% 29.95 in 10.0 mi WSW 15.0 mph 23.0 mph N/A   Clear
12:53 PM 89.1 °F 100.2 °F 75.9 °F 65% 29.94 in 10.0 mi WSW 10.4 mph 19.6 mph N/A   Partly Cloudy
1:53 PM 87.1 °F 97.3 °F 75.9 °F 69% 29.93 in 10.0 mi SSW 10.4 mph 19.6 mph N/A   Partly Cloudy
2:53 PM 84.0 °F 93.7 °F 77.0 °F 79% 29.91 in 9.0 mi SSW 8.1 mph - N/A   Scattered Clouds
3:53 PM 86.0 °F 96.9 °F 77.0 °F 74% 29.90 in 10.0 mi SSW 9.2 mph 16.1 mph N/A   Mostly Cloudy
5:53 PM 86.0 °F 95.1 °F 75.0 °F 70% 29.88 in 10.0 mi SSW 8.1 mph 23.0 mph N/A   Clear
7:53 PM 81.0 °F 87.3 °F 75.9 °F 85% 29.89 in 7.0 mi SSW 4.6 mph - N/A   Clear
8:53 PM 78.1 °F - 73.9 °F 87% 29.95 in 4.0 mi NNW 21.9 mph 36.8 mph 0.05 in Rain Light Rain
9:00 PM 75.2 °F - 73.4 °F 94% 29.97 in 2.5 mi NNW 12.7 mph 27.6 mph 0.05 in Rain Rain
9:17 PM 75.2 °F - 73.4 °F 94% 29.97 in 5.0 mi NNW 15.0 mph 25.3 mph 0.16 in Rain Light Rain
9:34 PM 73.4 °F - 73.4 °F 100% 29.96 in 0.8 mi WSW 12.7 mph 28.8 mph 0.64 in Rain Heavy Rain
9:48 PM 73.4 °F - 73.4 °F 100% 29.96 in 2.0 mi SW 8.1 mph - 0.82 in Rain Light Rain
9:51 PM 73.4 °F - 73.4 °F 100% 29.96 in 3.0 mi WSW 9.2 mph - 0.82 in Rain Rain
9:53 PM 73.9 °F - 73.0 °F 97% 29.96 in 3.0 mi WSW 9.2 mph - 0.83 in Rain Light Rain
10:53 PM 73.9 °F - 73.0 °F 97% 29.96 in 7.0 mi West 6.9 mph - 0.07 in Rain Light Rain
11:53 PM 73.9 °F - 73.0 °F 97% 29.96 in 10.0 mi West 4.6 mph - 0.00 in   Partly Cloudy